EW2348 Weather Reports


Display with metric or nautical units.
time (UTC)temp
F
wind
direction
speed
MPH
gust
MPH
rain 1hr
in
rain 24hr
in
rain mn
in
humidity
%
barometer
mb
20160829144043 80 284 1.0 6.0 0.00 0.87 0.01 82 1018.4
20160829143844 79 282 3.0 6.0 0.00 0.87 0.01 81 1018.4
20160829143643 79 286 2.0 6.0 0.00 0.87 0.01 79 1018.4
20160829143544 80 282 3.0 8.0 0.00 0.87 0.01 81 1018.4
20160829143443 79 283 2.0 8.0 0.00 0.87 0.01 82 1018.4
20160829143343 79 286 3.0 8.0 0.00 0.87 0.01 82 1018.4
20160829143244 79 290 3.0 8.0 0.00 0.87 0.01 82 1018.4
20160829143043 79 285 1.0 8.0 0.00 0.87 0.01 82 1018.4
20160829142843 79 287 3.0 8.0 0.00 0.87 0.01 83 1018.4
20160829142743 79 293 1.0 8.0 0.00 0.87 0.01 82 1018.5
20160829142544 79 289 5.0 9.0 0.00 0.87 0.01 83 1018.4
20160829142443 79 286 4.0 9.0 0.00 0.87 0.01 83 1018.6
20160829142343 78 283 3.0 9.0 0.00 0.87 0.01 82 1018.4
20160829142143 78 283 5.0 9.0 0.00 0.87 0.01 84 1018.5
20160829142043 79 285 2.0 9.0 0.00 0.87 0.01 84 1018.7
20160829141843 79 292 3.0 9.0 0.00 0.87 0.01 84 1018.5
20160829141743 78 298 1.0 9.0 0.00 0.87 0.01 83 1018.4
20160829141643 78 305 5.0 9.0 0.00 0.87 0.01 83 1018.5
20160829141544 79 312 4.0 8.0 0.00 0.87 0.01 83 1018.4
20160829141343 78 318 2.0 8.0 0.00 0.87 0.01 85 1018.5
20160829141243 78 319 1.0 8.0 0.00 0.87 0.01 85 1018.4
20160829140944 77 326 3.0 8.0 0.00 0.87 0.01 83 1018.4
20160829140843 78 323 6.0 8.0 0.00 0.87 0.01 83 1018.4
20160829140343 78 301 2.0 5.0 0.00 0.87 0.01 85 1018.3
20160829140244 78 304 2.0 5.0 0.00 0.87 0.01 85 1018.3
20160829140143 78 304 2.0 5.0 0.00 0.87 0.01 85 1018.4
20160829135943 78 306 0.0 7.0 0.00 0.87 0.01 86 1018.5
20160829135843 78 305 1.0 7.0 0.00 0.87 0.01 86 1018.4
20160829135544 78 305 1.0 7.0 0.00 0.87 0.01 86 1018.5
20160829135343 77 298 3.0 7.0 0.00 0.87 0.01 85 1018.6
20160829134843 77 290 1.0 5.0 0.00 0.87 0.01 89 1018.3
20160829134743 76 293 0.0 5.0 0.00 0.87 0.01 89 1018.4
20160829134343 76 309 3.0 5.0 0.00 0.87 0.01 90 1018.5
20160829134043 75 300 2.0 5.0 0.00 0.87 0.01 90 1018.1
20160829133943 75 301 1.0 5.0 0.00 0.87 0.01 89 1018.4
20160829133643 75 306 2.0 5.0 0.00 0.87 0.01 88 1018.4
20160829133543 75 300 2.0 4.0 0.00 0.87 0.01 90 1018.2
20160829133443 75 300 3.0 4.0 0.00 0.87 0.01 90 1018.1
20160829133243 76 305 1.0 4.0 0.00 0.87 0.01 90 1018.1
20160829133143 76 313 1.0 4.0 0.00 0.87 0.01 90 1018.2
20160829133043 76 311 1.0 4.0 0.00 0.87 0.01 89 1018.3
20160829132643 76 304 2.0 4.0 0.00 0.87 0.01 92 1018.1
20160829132544 75 302 1.0 4.0 0.00 0.87 0.01 91 1018.4
20160829132443 75 303 1.0 4.0 0.00 0.87 0.01 91 1018.4
20160829132343 74 305 2.0 4.0 0.00 0.87 0.01 92 1018.2
20160829132243 74 300 1.0 4.0 0.00 0.87 0.01 92 1018.3
20160829131843 74 286 2.0 3.0 0.00 0.87 0.01 93 1018.1
20160829131744 75 279 2.0 3.0 0.00 0.87 0.01 93 1018.2
20160829131643 74 280 1.0 3.0 0.00 0.87 0.01 93 1018.2
20160829131543 74 282 1.0 3.0 0.00 0.87 0.01 93 1018.1
20160829131444 73 288 0.0 3.0 0.00 0.87 0.01 93 1018.0
20160829131343 73 297 1.0 4.0 0.00 0.87 0.01 92 1018.0
20160829131243 73 292 1.0 4.0 0.00 0.87 0.01 92 1018.1
20160829131143 73 290 1.0 4.0 0.00 0.87 0.01 92 1018.4
20160829130944 74 289 1.0 4.0 0.00 0.87 0.01 93 1018.1
20160829130843 74 289 1.0 4.0 0.00 0.87 0.01 93 1018.2
20160829130743 74 288 1.0 4.0 0.00 0.87 0.01 94 1018.0
20160829130643 74 287 1.0 4.0 0.00 0.87 0.01 94 1018.3
20160829130543 74 281 1.0 4.0 0.00 0.87 0.01 94 1018.2
20160829130443 73 276 1.0 4.0 0.00 0.87 0.01 94 1018.0
20160829130344 72 270 0.0 4.0 0.00 0.87 0.01 92 1018.3
20160829130243 72 271 2.0 4.0 0.00 0.87 0.01 92 1018.1
20160829130143 72 276 2.0 4.0 0.00 0.87 0.01 92 1018.1
20160829130043 73 277 1.0 3.0 0.00 0.87 0.01 93 1018.2
20160829125643 72 275 1.0 7.0 0.00 0.87 0.01 93 1018.1
20160829125343 73 281 0.0 7.0 0.00 0.87 0.01 94 1018.1
20160829125143 73 279 1.0 7.0 0.00 0.87 0.01 94 1017.8
20160829125043 72 281 1.0 7.0 0.00 0.87 0.01 94 1018.0
20160829124943 72 283 3.0 7.0 0.00 0.87 0.01 94 1018.1
20160829124843 72 286 0.0 7.0 0.00 0.87 0.01 94 1018.1
20160829124643 72 314 0.0 3.0 0.00 0.87 0.01 95 1018.1
20160829124543 72 324 1.0 3.0 0.00 0.87 0.01 95 1018.0
20160829124443 72 315 0.0 3.0 0.00 0.87 0.01 96 1018.1
20160829124143 71 299 1.0 3.0 0.00 0.87 0.01 97 1017.9
20160829123443 71 300 2.0 3.0 0.00 0.87 0.01 98 1018.3
20160829123343 71 305 1.0 3.0 0.00 0.87 0.01 98 1018.0
20160829123243 71 307 0.0 3.0 0.00 0.87 0.01 98 1018.0
20160829123143 71 310 2.0 3.0 0.00 0.87 0.01 98 1018.0
20160829122943 71 314 1.0 3.0 0.00 0.87 0.01 98 1018.0
20160829122843 72 315 2.0 3.0 0.00 0.87 0.01 97 1018.1
20160829122644 71 324 1.0 3.0 0.00 0.87 0.01 98 1018.1
20160829122543 71 330 1.0 3.0 0.00 0.87 0.01 98 1018.1
20160829122343 71 342 0.0 2.0 0.00 0.87 0.01 98 1017.9
20160829122243 71 344 1.0 2.0 0.00 0.87 0.01 98 1017.9
20160829122043 71 350 0.0 2.0 0.00 0.87 0.01 98 1017.9
20160829121643 70 1 1.0 2.0 0.00 0.87 0.01 98 1017.8
20160829121443 70 1 0.0 1.0 0.00 0.87 0.01 98 1017.8
20160829120943 71 1 0.0 1.0 0.00 0.87 0.01 98 1017.7
20160829120843 70 1 0.0 1.0 0.00 0.87 0.01 98 1017.6
20160829120743 69 1 1.0 1.0 0.00 0.87 0.01 99 1017.6
20160829120643 69 1 1.0 1.0 0.00 0.87 0.01 99 1017.8
20160829120543 69 1 1.0 1.0 0.00 0.87 0.01 99 1017.5
20160829120443 69 1 1.0 1.0 0.00 0.87 0.01 99 1017.6
20160829120343 69 1 1.0 1.0 0.00 0.87 0.01 99 1017.7
20160829120243 69 1 1.0 1.0 0.00 0.87 0.01 99 1017.5
20160829120043 69 1 1.0 1.0 0.00 0.87 0.01 99 1017.5
20160829115943 69 1 0.0 1.0 0.00 0.87 0.01 99 1017.6
20160829115843 69 1 1.0 1.0 0.00 0.87 0.01 99 1017.5
20160829115743 69 0 0.0 0.0 0.00 0.87 0.01 99 1017.5
20160829115543 69 0 0.0 0.0 0.00 0.87 0.01 99 1017.6
20160829115343 69 0 0.0 0.0 0.00 0.87 0.01 99 1017.5
20160829115143 69 0 0.0 0.0 0.00 0.87 0.01 99 1017.5
20160829115044 69 0 0.0 0.0 0.00 0.87 0.01 99 1017.5
20160829114843 69 0 0.0 0.0 0.00 0.87 0.01 99 1017.4
20160829114544 68 0 0.0 0.0 0.00 0.87 0.01 99 1017.5
20160829114343 68 0 0.0 0.0 0.00 0.87 0.01 99 1017.4
20160829114243 68 0 0.0 0.0 0.00 0.87 0.01 99 1017.7
20160829113843 67 1 0.0 1.0 0.00 0.87 0.01 99 1017.5
20160829113643 67 1 0.0 1.0 0.00 0.87 0.01 99 1017.5
20160829113444 67 1 0.0 1.0 0.00 0.87 0.01 99 1017.5
20160829113344 67 1 0.0 1.0 0.00 0.87 0.01 99 1017.5
20160829113044 67 1 0.0 1.0 0.00 0.87 0.01 99 1017.4
20160829112743 67 1 0.0 1.0 0.00 0.87 0.01 99 1017.2
20160829112643 67 1 0.0 1.0 0.00 0.87 0.01 99 1017.1
20160829112443 67 1 0.0 1.0 0.00 0.87 0.01 99 1017.3
20160829111843 67 0 0.0 0.0 0.00 0.87 0.01 99 1017.2
20160829111743 67 0 0.0 0.0 0.00 0.87 0.01 99 1017.2
20160829111643 67 0 0.0 0.0 0.00 0.87 0.01 99 1017.2
20160829111543 67 0 0.0 0.0 0.00 0.87 0.01 99 1017.1
20160829111444 67 0 0.0 0.0 0.00 0.87 0.01 99 1017.3
20160829111343 67 0 0.0 0.0 0.00 0.87 0.01 99 1017.2
20160829110843 67 1 0.0 1.0 0.00 0.87 0.01 99 1016.9
20160829110543 67 1 0.0 1.0 0.00 0.87 0.01 99 1017.1
20160829110443 67 1 0.0 1.0 0.00 0.87 0.01 99 1017.2
20160829110243 67 1 0.0 1.0 0.00 0.87 0.01 99 1017.2
20160829105843 67 1 0.0 1.0 0.00 0.87 0.01 99 1017.2
20160829105743 67 1 0.0 1.0 0.00 0.87 0.01 99 1017.1
20160829105644 67 0 0.0 0.0 0.00 0.87 0.01 99 1017.0
20160829105543 67 0 0.0 0.0 0.00 0.87 0.01 99 1017.0
20160829105443 67 0 0.0 0.0 0.00 0.87 0.01 99 1017.0
20160829105343 67 0 0.0 0.0 0.00 0.87 0.01 99 1017.0
20160829105143 67 0 0.0 0.0 0.00 0.87 0.01 99 1017.2
20160829105043 67 0 0.0 0.0 0.00 0.87 0.01 99 1016.9
20160829104743 67 1 0.0 1.0 0.00 0.87 0.01 99 1017.1
20160829104643 67 1 0.0 1.0 0.00 0.87 0.01 99 1017.0
20160829104543 67 1 0.0 1.0 0.00 0.87 0.01 99 1017.0
20160829104443 67 1 0.0 1.0 0.00 0.87 0.01 99 1017.1
20160829104244 67 1 0.0 1.0 0.00 0.87 0.01 99 1017.1
20160829104043 67 1 0.0 1.0 0.00 0.87 0.01 99 1017.0
20160829103943 67 1 0.0 1.0 0.00 0.87 0.01 99 1016.8
20160829103844 68 1 0.0 1.0 0.00 0.87 0.01 99 1016.9
20160829103643 67 1 0.0 1.0 0.00 0.87 0.01 99 1017.1
20160829103444 67 1 0.0 1.0 0.00 0.87 0.01 99 1017.0
20160829103243 67 1 0.0 1.0 0.00 0.87 0.01 99 1016.9
20160829103043 67 1 0.0 1.0 0.00 0.87 0.01 99 1017.0
20160829102944 67 1 1.0 1.0 0.00 0.87 0.01 99 1017.0
20160829102843 67 1 0.0 1.0 0.01 0.87 0.01 99 1017.0
20160829102445 67 1 0.0 1.0 0.01 0.87 0.01 99 1017.0
20160829102345 67 1 0.0 1.0 0.01 0.87 0.01 99 1016.9
20160829102243 67 1 0.0 1.0 0.01 0.87 0.01 99 1016.8
20160829102143 67 1 0.0 1.0 0.01 0.87 0.01 99 1016.8
20160829101743 67 1 0.0 3.0 0.01 0.87 0.01 99 1017.0
20160829101643 67 1 0.0 3.0 0.01 0.87 0.01 99 1017.0
20160829101243 67 1 0.0 3.0 0.01 0.87 0.01 99 1016.9
20160829101146 67 1 0.0 3.0 0.01 0.87 0.01 99 1017.0
20160829100943 67 1 2.0 3.0 0.01 0.87 0.01 99 1016.9
20160829100843 68 1 0.0 1.0 0.01 0.87 0.01 99 1016.9
20160829100743 67 0 0.0 0.0 0.01 0.87 0.01 99 1016.9
20160829100543 67 0 0.0 0.0 0.01 0.87 0.01 99 1016.7
20160829100344 67 0 0.0 0.0 0.01 0.87 0.01 99 1016.9
20160829100143 67 0 0.0 0.0 0.01 0.87 0.01 99 1016.9
20160829095843 67 0 0.0 0.0 0.01 0.87 0.01 99 1016.9
20160829095543 67 1 0.0 5.0 0.01 0.87 0.01 99 1016.8
20160829095343 67 1 0.0 5.0 0.01 0.87 0.01 99 1017.1
20160829095043 67 1 0.0 5.0 0.01 0.87 0.01 99 1016.8
20160829094943 68 1 0.0 5.0 0.01 0.87 0.01 99 1016.9
20160829094743 67 357 1.0 5.0 0.01 0.87 0.01 99 1016.9
20160829094643 67 346 3.0 5.0 0.01 0.87 0.01 99 1016.9
20160829094543 67 306 3.0 5.0 0.01 0.87 0.01 99 1016.9
20160829094443 67 270 0.0 2.0 0.01 0.87 0.01 99 1016.8
20160829094143 67 270 0.0 2.0 0.01 0.87 0.01 99 1016.8
20160829094048 68 270 0.0 2.0 0.01 0.87 0.01 99 1016.7
20160829093945 67 270 0.0 3.0 0.01 0.87 0.01 99 1016.9
20160829093845 67 270 0.0 3.0 0.01 0.87 0.01 99 1016.8
20160829093748 67 270 1.0 3.0 0.01 0.87 0.01 99 1016.8
20160829093643 67 270 1.0 3.0 0.01 0.87 0.01 99 1016.9
20160829093447 67 270 0.0 3.0 0.01 0.87 0.01 99 1016.9
20160829093345 67 270 0.0 3.0 0.01 0.87 0.01 99 1016.8
20160829093243 67 270 1.0 3.0 0.01 0.87 0.01 99 1017.0
20160829093143 67 270 0.0 3.0 0.01 0.87 0.01 99 1016.8
20160829092943 67 270 1.0 3.0 0.01 0.87 0.01 99 1016.9
20160829092743 67 270 0.0 2.0 0.00 0.86 0.00 99 1017.0
20160829092443 67 270 0.0 2.0 0.00 0.86 0.00 99 1016.7
20160829092343 67 270 0.0 2.0 0.00 0.86 0.00 99 1016.8
20160829092245 67 270 0.0 2.0 0.00 0.86 0.00 99 1016.7
20160829092043 67 270 0.0 2.0 0.00 0.86 0.00 99 1016.7
20160829091943 67 270 1.0 2.0 0.00 0.86 0.00 99 1016.9
20160829091843 67 270 1.0 2.0 0.00 0.86 0.00 99 1016.8
20160829091748 67 270 1.0 2.0 0.00 0.86 0.00 99 1016.8
20160829091543 67 270 0.0 1.0 0.00 0.86 0.00 99 1016.7
20160829091343 67 270 0.0 1.0 0.00 0.86 0.00 99 1016.9
20160829091243 67 270 0.0 1.0 0.00 0.86 0.00 99 1016.8
20160829091143 67 270 0.0 1.0 0.00 0.86 0.00 99 1016.9
20160829090843 68 270 0.0 1.0 0.00 0.86 0.00 99 1017.0
20160829090644 67 277 1.0 2.0 0.00 0.86 0.00 99 1016.9
20160829090543 67 278 0.0 2.0 0.00 0.86 0.00 99 1016.9
20160829090443 67 279 0.0 2.0 0.00 0.86 0.00 99 1016.9
20160829090343 67 278 0.0 2.0 0.00 0.86 0.00 99 1016.9
20160829090244 68 278 1.0 2.0 0.00 0.86 0.00 99 1016.7
20160829090143 67 280 0.0 2.0 0.00 0.86 0.00 99 1016.8
20160829085943 67 277 0.0 2.0 0.00 0.86 0.00 99 1016.6
20160829085843 67 277 0.0 2.0 0.00 0.86 0.00 99 1016.7
20160829085742 68 277 0.0 2.0 0.00 0.86 0.00 99 1016.8
20160829085643 68 271 1.0 2.0 0.00 0.86 0.00 99 1016.8
20160829085544 68 270 0.0 1.0 0.00 0.86 0.00 99 1017.0
20160829085443 68 270 0.0 1.0 0.00 0.86 0.00 99 1016.9
20160829085343 68 270 0.0 1.0 0.00 0.86 0.00 99 1016.9
20160829085242 68 273 0.0 1.0 0.00 0.86 0.00 99 1016.9
20160829085143 68 279 0.0 2.0 0.00 0.86 0.00 99 1016.9
20160829085043 67 294 0.0 2.0 0.00 0.86 0.00 99 1017.1
20160829084843 68 301 0.0 3.0 0.00 0.86 0.00 99 1016.8
20160829084343 68 318 0.0 4.0 0.00 0.86 0.00 99 1016.8
20160829084243 68 316 0.0 4.0 0.00 0.86 0.00 99 1016.8
20160829084043 68 311 1.0 4.0 0.00 0.86 0.00 99 1016.8
20160829083543 68 301 2.0 3.0 0.00 0.86 0.00 99 1016.7
20160829083442 68 298 2.0 3.0 0.00 0.86 0.00 99 1016.9
20160829083343 68 293 0.0 3.0 0.00 0.86 0.00 99 1017.0
20160829083143 68 285 1.0 3.0 0.00 0.86 0.00 99 1016.7
20160829082943 68 277 1.0 3.0 0.00 0.86 0.00 99 1016.7
20160829082842 68 273 2.0 3.0 0.00 0.86 0.00 99 1016.7
20160829082743 68 275 1.0 3.0 0.00 0.86 0.00 99 1017.1
20160829082643 68 278 0.0 3.0 0.00 0.86 0.00 99 1016.9
20160829082543 68 276 0.0 3.0 0.00 0.86 0.00 99 1016.9
20160829082443 68 276 0.0 3.0 0.00 0.86 0.00 99 1016.8
20160829082143 68 276 1.0 3.0 0.00 0.86 0.00 99 1016.7
20160829082043 68 276 1.0 3.0 0.00 0.86 0.00 99 1016.9
20160829081843 68 276 1.0 3.0 0.00 0.86 0.00 99 1017.0
20160829081643 68 272 0.0 2.0 0.00 0.86 0.00 99 1016.7
20160829081543 68 274 0.0 2.0 0.00 0.86 0.00 99 1016.9
20160829081443 68 276 0.0 2.0 0.00 0.86 0.00 99 1016.7
20160829081343 68 278 1.0 2.0 0.00 0.86 0.00 99 1016.7
20160829081243 68 281 1.0 2.0 0.00 0.86 0.00 99 1016.8
20160829081043 68 293 1.0 2.0 0.00 0.86 0.00 99 1016.7
20160829080743 68 296 0.0 2.0 0.00 0.86 0.00 99 1016.7
20160829080443 68 282 0.0 2.0 0.00 0.86 0.00 99 1017.0
20160829080242 68 276 0.0 2.0 0.00 0.86 0.00 99 1017.1
20160829080043 68 272 0.0 2.0 0.00 0.86 0.00 99 1016.9
20160829075943 68 270 0.0 2.0 0.00 0.86 0.00 99 1016.9
20160829075742 68 270 1.0 2.0 0.00 0.86 0.00 99 1017.0
20160829075544 68 270 0.0 2.0 0.00 0.86 0.00 99 1017.0
20160829075343 68 270 1.0 2.0 0.00 0.86 0.00 99 1016.6
20160829075243 68 270 1.0 2.0 0.00 0.86 0.00 99 1017.0
20160829075043 68 270 1.0 2.0 0.00 0.86 0.00 99 1016.8
20160829074543 68 291 0.0 3.0 0.00 0.86 0.00 99 1016.8
20160829074443 68 304 0.0 3.0 0.00 0.86 0.00 99 1016.7
20160829074243 68 312 1.0 3.0 0.00 0.86 0.00 99 1016.8
20160829074143 68 313 0.0 3.0 0.00 0.86 0.00 99 1016.6
20160829073943 68 309 1.0 3.0 0.00 0.86 0.00 99 1016.7
20160829073843 68 311 1.0 3.0 0.00 0.86 0.00 99 1016.8
20160829073443 68 289 2.0 3.0 0.00 0.86 0.00 99 1016.8
20160829073343 69 285 1.0 3.0 0.00 0.86 0.00 99 1016.5
20160829073243 68 281 1.0 3.0 0.00 0.86 0.00 99 1016.9
20160829073043 68 289 1.0 3.0 0.00 0.86 0.00 99 1016.8
20160829072943 69 290 1.0 4.0 0.00 0.86 0.00 99 1016.8
20160829072843 68 286 1.0 5.0 0.00 0.86 0.00 99 1016.8
20160829072443 69 289 0.0 5.0 0.00 0.86 0.00 99 1016.9
20160829072343 69 288 0.0 5.0 0.00 0.86 0.00 99 1016.8
20160829072242 69 286 0.0 5.0 0.00 0.86 0.00 99 1016.7
20160829072143 69 282 1.0 5.0 0.00 0.86 0.00 99 1016.7
20160829071943 69 276 2.0 5.0 0.00 0.86 0.00 99 1016.8
20160829071743 69 281 1.0 4.0 0.00 0.86 0.00 99 1016.9
20160829071643 69 281 2.0 4.0 0.00 0.86 0.00 99 1016.7
20160829071443 69 278 0.0 3.0 0.00 0.86 0.00 99 1016.8
20160829071343 69 277 1.0 3.0 0.00 0.86 0.00 99 1016.8
20160829071242 69 278 0.0 6.0 0.00 0.86 0.00 99 1016.7
20160829071143 69 285 1.0 6.0 0.00 0.86 0.00 99 1016.9
20160829070943 69 304 1.0 6.0 0.00 0.86 0.00 99 1016.6
20160829070743 69 321 1.0 6.0 0.00 0.86 0.00 99 1016.9
20160829070543 69 354 1.0 6.0 0.00 0.86 0.00 99 1016.9
20160829070443 69 10 1.0 6.0 0.00 0.86 0.00 99 1016.9
20160829070143 69 45 1.0 4.0 0.00 0.86 0.00 99 1016.9
20160829065943 69 46 1.0 4.0 0.00 0.86 0.00 99 1017.1
20160829065543 69 45 2.0 3.0 0.00 0.86 0.00 99 1017.1
20160829065143 69 45 1.0 3.0 0.00 0.86 0.00 99 1016.9
20160829065043 69 45 1.0 3.0 0.00 0.86 0.00 99 1016.9
20160829064942 69 45 2.0 3.0 0.00 0.86 0.00 99 1017.0
20160829064843 69 45 1.0 3.0 0.00 0.86 0.00 99 1017.1
20160829064643 69 45 1.0 3.0 0.00 0.86 0.00 99 1016.9
20160829064443 69 45 1.0 3.0 0.00 0.86 0.00 99 1016.9
20160829064342 69 45 1.0 2.0 0.00 0.86 0.00 99 1016.8
20160829064143 69 0 0.0 0.0 0.00 0.86 0.00 99 1016.9
20160829064043 69 0 0.0 0.0 0.00 0.86 0.00 99 1016.9
20160829063943 68 0 0.0 0.0 0.00 0.86 0.00 99 1016.9
20160829063843 68 0 0.0 0.0 0.00 0.86 0.00 99 1016.9
20160829063742 68 0 0.0 0.0 0.00 0.86 0.00 99 1016.7
20160829063443 69 0 0.0 0.0 0.00 0.86 0.00 99 1016.9
20160829063343 69 0 0.0 0.0 0.00 0.86 0.00 99 1016.9
20160829063242 69 0 0.0 0.0 0.00 0.86 0.00 99 1016.8
20160829063043 69 0 0.0 0.0 0.00 0.86 0.00 99 1016.9
20160829062843 69 0 0.0 0.0 0.00 0.86 0.00 99 1016.9
20160829062643 69 0 0.0 0.0 0.00 0.86 0.00 99 1017.0
20160829062042 68 0 0.0 0.0 0.00 0.86 0.00 99 1016.7
20160829061843 69 0 0.0 0.0 0.00 0.86 0.00 99 1016.7
20160829061743 69 0 0.0 0.0 0.00 0.86 0.00 99 1017.0
20160829061643 69 0 0.0 0.0 0.00 0.86 0.00 99 1016.8
20160829061543 68 0 0.0 0.0 0.00 0.86 0.00 99 1016.8
20160829061243 68 0 0.0 0.0 0.00 0.86 0.00 99 1016.8
20160829061043 68 0 0.0 0.0 0.00 0.86 0.00 99 1016.8
20160829060943 68 0 0.0 0.0 0.00 0.86 0.00 99 1016.6
20160829060842 68 0 0.0 0.0 0.00 0.86 0.00 99 1016.8
20160829060742 68 0 0.0 0.0 0.00 0.86 0.00 99 1016.8
20160829060643 68 0 0.0 0.0 0.00 0.86 0.00 99 1016.7
20160829060543 68 0 0.0 0.0 0.00 0.86 0.00 99 1016.7
20160829060243 68 0 0.0 0.0 0.00 0.86 0.00 99 1016.7
20160829060142 68 90 0.0 1.0 0.00 0.86 0.00 99 1016.6
20160829060042 68 90 0.0 1.0 0.00 0.86 0.00 99 1016.6
20160829055943 68 90 0.0 1.0 0.00 0.86 0.00 99 1016.5
20160829055543 68 90 0.0 1.0 0.00 0.86 0.00 99 1016.4
20160829055343 68 90 0.0 2.0 0.00 0.86 0.00 99 1016.5
20160829055043 68 71 1.0 2.0 0.00 0.86 0.00 99 1016.5
20160829054743 68 64 0.0 2.0 0.00 0.86 0.00 99 1016.3
20160829054342 68 65 0.0 2.0 0.00 0.86 0.00 99 1016.3
20160829054143 68 76 0.0 2.0 0.00 0.86 0.00 99 1016.3
20160829054043 68 82 1.0 2.0 0.00 0.86 0.00 99 1016.3
20160829053742 68 90 0.0 2.0 0.00 0.86 0.00 99 1016.4
20160829053443 68 90 0.0 2.0 0.00 0.86 0.00 99 1016.3
20160829053343 68 90 1.0 2.0 0.00 0.86 0.00 99 1016.2
20160829053242 68 90 0.0 2.0 0.00 0.86 0.00 99 1016.3
20160829053043 68 90 0.0 1.0 0.00 0.86 0.00 99 1016.3
20160829052843 68 90 1.0 1.0 0.00 0.86 0.00 99 1016.2
20160829052743 68 90 0.0 1.0 0.00 0.86 0.00 99 1016.3
20160829052642 68 0 0.0 0.0 0.00 0.86 0.00 99 1016.2
20160829052443 69 0 0.0 0.0 0.00 0.86 0.00 99 1016.3
20160829052343 69 0 0.0 0.0 0.00 0.86 0.00 99 1016.2
20160829052243 69 0 0.0 0.0 0.00 0.86 0.00 99 1016.3
20160829052042 69 0 0.0 0.0 0.00 0.86 0.00 99 1016.4
20160829051943 69 0 0.0 0.0 0.00 0.86 0.00 99 1016.4
20160829051643 69 90 0.0 2.0 0.00 0.86 0.00 99 1016.2
20160829051543 69 90 0.0 2.0 0.00 0.86 0.00 99 1016.1
20160829051442 69 90 0.0 2.0 0.00 0.86 0.00 99 1016.2
20160829051342 69 90 0.0 2.0 0.00 0.86 0.00 99 1016.0
20160829051143 69 90 0.0 2.0 0.00 0.86 0.00 99 1016.2
20160829050943 69 90 0.0 2.0 0.00 0.86 0.00 99 1016.2
20160829050843 69 90 0.0 3.0 0.00 0.86 0.00 99 1015.9
20160829050643 69 82 1.0 4.0 0.00 0.86 0.00 99 1016.0
20160829050543 69 76 0.0 4.0 0.00 0.86 0.00 99 1016.0
20160829050342 69 66 0.0 4.0 0.00 0.86 0.00 99 1015.9
20160829050243 69 64 0.0 4.0 0.00 0.86 0.00 99 1015.9
20160829050143 69 63 1.0 4.0 0.00 0.86 0.00 99 1015.9
20160829045943 69 54 1.0 4.0 0.00 0.86 0.00 99 1015.8
20160829045643 69 32 3.0 4.0 0.00 0.86 0.00 99 1015.9
20160829045343 69 6 1.0 3.0 0.00 0.86 0.00 99 1015.9
20160829045143 69 1 0.0 3.0 0.00 0.86 0.00 99 1016.1
20160829044943 69 1 1.0 3.0 0.00 0.86 0.00 99 1015.8
20160829044642 69 1 0.0 3.0 0.00 0.86 0.00 99 1016.2
20160829044543 69 1 1.0 3.0 0.00 0.86 0.00 99 1016.1
20160829044143 69 1 0.0 3.0 0.00 0.86 0.00 99 1016.1
20160829043843 69 1 0.0 3.0 0.00 0.86 0.00 99 1016.2
20160829043743 69 1 0.0 3.0 0.00 0.86 0.00 99 1016.3
20160829043442 69 348 0.0 3.0 0.00 0.86 0.00 99 1016.4
20160829042943 69 334 1.0 3.0 0.00 0.86 0.00 99 1016.4
20160829042842 69 327 1.0 3.0 0.00 0.86 0.00 99 1016.4
20160829042543 69 314 1.0 2.0 0.00 0.86 0.00 99 1016.4
20160829042443 68 314 0.0 2.0 0.00 0.86 0.00 99 1016.5
20160829042343 69 314 0.0 2.0 0.00 0.86 0.00 99 1016.4
20160829042242 69 314 0.0 2.0 0.00 0.86 0.00 99 1016.5
20160829042143 69 314 1.0 2.0 0.00 0.86 0.00 99 1016.4
20160829042043 69 314 1.0 1.0 0.00 0.86 0.00 99 1016.4
20160829041842 69 314 0.0 1.0 0.00 0.86 0.00 99 1016.8
20160829041643 69 314 0.0 1.0 0.00 0.86 0.00 99 1016.4
20160829041543 69 314 0.0 1.0 0.00 0.86 0.00 99 1016.6
20160829041443 69 314 0.0 1.0 0.00 0.86 0.00 99 1016.6
20160829041343 69 0 0.0 0.0 0.00 0.86 0.00 99 1016.8
20160829041142 69 0 0.0 0.0 0.00 0.86 0.00 99 1016.6
20160829041043 69 0 0.0 0.0 0.00 0.86 0.00 99 1016.8
20160829040943 69 0 0.0 0.0 0.00 0.86 0.00 99 1016.9
20160829040743 69 0 0.0 0.0 0.00 0.86 0.00 99 1017.1
20160829040642 69 0 0.0 0.0 0.00 0.86 0.00 99 1016.9
20160829040243 69 0 0.0 0.0 0.00 0.86 0.86 99 1017.1
20160829040144 69 0 0.0 0.0 0.00 0.86 0.86 99 1017.1
20160829040043 69 0 0.0 0.0 0.00 0.86 0.86 99 1017.1
20160829035843 69 0 0.0 0.0 0.00 0.86 0.86 99 1017.2
20160829035643 69 270 0.0 1.0 0.00 0.86 0.86 99 1017.3
20160829034943 69 270 0.0 3.0 0.00 0.86 0.86 99 1017.3
20160829034843 69 270 0.0 3.0 0.00 0.86 0.86 99 1017.2
20160829034543 69 270 1.0 3.0 0.00 0.86 0.86 99 1017.4
20160829034442 69 270 1.0 3.0 0.00 0.86 0.86 99 1017.5
20160829034243 69 285 2.0 3.0 0.00 0.86 0.86 99 1017.6
20160829033842 69 299 0.0 3.0 0.00 0.86 0.86 99 1017.7
20160829033643 69 291 0.0 3.0 0.00 0.86 0.86 99 1017.8
20160829033543 70 288 0.0 3.0 0.00 0.86 0.86 99 1017.8
20160829033443 69 285 0.0 3.0 0.00 0.86 0.86 99 1017.8
20160829033342 69 283 1.0 3.0 0.00 0.86 0.86 99 1017.8
20160829033043 70 270 0.0 4.0 0.00 0.86 0.86 99 1017.9
20160829032842 69 272 0.0 7.0 0.00 0.86 0.86 99 1018.1
20160829032643 69 288 1.0 7.0 0.00 0.86 0.86 99 1018.1
20160829032543 69 293 1.0 7.0 0.00 0.86 0.86 99 1018.0
20160829032443 69 299 1.0 7.0 0.00 0.86 0.86 99 1018.2
20160829032343 69 298 1.0 7.0 0.00 0.86 0.86 99 1018.3
20160829032143 69 301 2.0 7.0 0.00 0.86 0.86 99 1018.2
20160829032043 69 308 2.0 7.0 0.00 0.86 0.86 99 1018.3
20160829031942 69 309 2.0 7.0 0.00 0.86 0.86 99 1018.4
20160829031842 69 311 3.0 7.0 0.00 0.86 0.86 99 1018.4
20160829031543 69 311 1.0 7.0 0.00 0.86 0.86 99 1018.4
20160829031443 69 309 1.0 7.0 0.00 0.86 0.86 99 1018.6
20160829031343 69 310 2.0 7.0 0.00 0.86 0.86 99 1018.5
20160829031242 69 309 2.0 7.0 0.01 0.86 0.86 99 1018.5
20160829031143 69 312 4.0 7.0 0.01 0.86 0.86 99 1018.7
20160829031043 69 312 3.0 7.0 0.01 0.86 0.86 99 1018.5
20160829030943 69 307 3.0 7.0 0.01 0.86 0.86 99 1018.4
20160829030843 70 317 1.0 7.0 0.01 0.86 0.86 99 1018.7
20160829030742 69 313 1.0 7.0 0.01 0.86 0.86 99 1018.8
20160829030643 69 304 1.0 7.0 0.01 0.86 0.86 99 1018.8
20160829030343 69 300 1.0 7.0 0.02 0.86 0.86 99 1018.7
20160829030143 70 301 1.0 7.0 0.02 0.86 0.86 99 1018.8
20160829030043 69 300 3.0 7.0 0.02 0.86 0.86 99 1018.5
20160829025943 70 302 4.0 7.0 0.02 0.86 0.86 99 1018.8
20160829025743 69 289 1.0 4.0 0.04 0.86 0.86 99 1018.5
20160829025543 70 291 3.0 4.0 0.04 0.86 0.86 99 1018.6
20160829025243 69 285 1.0 6.0 0.04 0.86 0.86 99 1018.7
20160829025042 69 287 1.0 7.0 0.05 0.86 0.86 99 1018.6
20160829024943 69 287 1.0 7.0 0.05 0.86 0.86 99 1018.6
20160829024843 69 291 0.0 7.0 0.05 0.86 0.86 99 1018.6
20160829024643 69 296 1.0 7.0 0.05 0.86 0.86 99 1018.4
20160829024542 69 299 1.0 7.0 0.06 0.86 0.86 99 1018.5
20160829024343 69 309 3.0 7.0 0.06 0.86 0.86 99 1018.4
20160829024243 69 304 2.0 7.0 0.07 0.86 0.86 99 1018.5
20160829024143 69 307 3.0 7.0 0.07 0.86 0.86 99 1018.5
20160829024043 70 309 4.0 7.0 0.07 0.86 0.86 99 1018.4
20160829023942 69 315 2.0 3.0 0.08 0.86 0.86 99 1018.6
20160829023842 69 315 2.0 4.0 0.08 0.86 0.86 99 1018.4
20160829023643 70 326 1.0 4.0 0.08 0.86 0.86 98 1018.5
20160829023543 70 330 1.0 4.0 0.08 0.86 0.86 98 1018.4
20160829023443 70 334 1.0 4.0 0.09 0.86 0.86 98 1018.3
20160829023342 70 336 1.0 4.0 0.09 0.86 0.86 98 1018.3
20160829023243 70 338 1.0 4.0 0.09 0.86 0.86 98 1018.4
20160829022943 70 351 1.0 4.0 0.09 0.86 0.86 98 1018.4
20160829022842 70 358 2.0 4.0 0.09 0.86 0.86 98 1018.2
20160829022743 70 1 3.0 4.0 0.09 0.86 0.86 99 1018.2
20160829022442 70 1 1.0 4.0 0.11 0.86 0.86 99 1018.1
20160829022143 69 1 1.0 4.0 0.11 0.86 0.86 99 1018.3
20160829022043 69 1 2.0 4.0 0.12 0.86 0.86 99 1018.2
20160829021742 69 1 0.0 3.0 0.12 0.86 0.86 99 1018.5
20160829021543 69 1 0.0 3.0 0.13 0.86 0.86 99 1018.2
20160829021443 70 1 0.0 3.0 0.13 0.86 0.86 99 1018.2
20160829021342 69 1 1.0 3.0 0.13 0.85 0.85 99 1018.2
20160829021043 70 1 1.0 3.0 0.14 0.85 0.85 99 1018.3
20160829020443 70 1 0.0 1.0 0.14 0.84 0.84 98 1018.0
20160829020243 69 1 1.0 1.0 0.14 0.84 0.84 99 1017.7
20160829015942 69 1 0.0 2.0 0.15 0.84 0.84 99 1017.5
20160829015843 69 1 0.0 2.0 0.15 0.84 0.84 99 1017.6
20160829015643 69 1 0.0 2.0 0.14 0.83 0.83 99 1017.5
20160829015543 69 1 0.0 2.0 0.14 0.83 0.83 99 1017.7
20160829015342 69 1 0.0 2.0 0.14 0.83 0.83 99 1017.5
20160829015242 69 1 0.0 2.0 0.14 0.83 0.83 99 1017.6
20160829014943 70 1 0.0 1.0 0.13 0.81 0.81 98 1017.5
20160829014842 70 1 0.0 1.0 0.13 0.81 0.81 99 1017.5
20160829014742 69 1 0.0 1.0 0.13 0.81 0.81 99 1017.6
20160829014642 69 1 0.0 1.0 0.12 0.80 0.80 99 1017.6
20160829014543 69 1 0.0 1.0 0.12 0.80 0.80 99 1017.7
20160829014443 69 1 0.0 1.0 0.12 0.80 0.80 99 1017.7
20160829014142 69 1 0.0 2.0 0.11 0.79 0.79 99 1017.6
20160829014042 69 1 1.0 2.0 0.11 0.79 0.79 99 1017.6
20160829013743 69 1 0.0 2.0 0.09 0.78 0.78 99 1017.8
20160829013643 69 1 0.0 2.0 0.09 0.78 0.78 99 1017.6
20160829013343 69 1 0.0 2.0 0.08 0.77 0.77 99 1017.6
20160829013243 70 1 1.0 2.0 0.08 0.77 0.77 99 1017.6
20160829013043 69 1 0.0 1.0 0.08 0.77 0.77 99 1017.6
20160829012742 69 1 0.0 2.0 0.08 0.76 0.76 99 1017.4
20160829012643 69 1 0.0 2.0 0.08 0.76 0.76 99 1017.6
20160829012543 69 1 0.0 2.0 0.08 0.76 0.76 99 1017.5
20160829012442 69 1 0.0 2.0 0.08 0.76 0.76 99 1017.4
20160829012342 69 1 0.0 2.0 0.08 0.76 0.76 99 1017.6
20160829012243 69 1 0.0 2.0 0.08 0.76 0.76 99 1017.6
20160829012043 69 1 1.0 2.0 0.07 0.74 0.74 99 1017.5
20160829011842 69 1 1.0 1.0 0.08 0.74 0.74 99 1017.4
20160829011743 69 1 1.0 2.0 0.08 0.74 0.74 99 1017.7
20160829011643 69 1 1.0 2.0 0.07 0.73 0.73 99 1017.6
20160829011043 70 1 0.0 2.0 0.05 0.71 0.71 99 1018.2
20160829010843 70 1 1.0 2.0 0.05 0.71 0.71 98 1018.1
20160829010642 70 1 1.0 3.0 0.05 0.70 0.70 98 1018.3
20160829010542 70 1 1.0 3.0 0.06 0.70 0.70 98 1018.2
20160829010443 70 1 1.0 3.0 0.06 0.70 0.70 98 1018.2
20160829010142 70 1 1.0 6.0 0.09 0.70 0.70 99 1018.4
20160829010042 70 1 1.0 6.0 0.09 0.70 0.70 98 1018.4
20160829005943 70 1 1.0 6.0 0.11 0.69 0.69 99 1018.3
20160829005743 70 7 1.0 6.0 0.14 0.69 0.69 98 1018.5
20160829005642 70 11 2.0 6.0 0.17 0.69 0.69 98 1018.7
20160829005542 70 16 0.0 6.0 0.19 0.69 0.69 98 1018.7
20160829005443 70 22 1.0 6.0 0.20 0.69 0.69 98 1018.7
20160829005343 70 28 0.0 6.0 0.22 0.69 0.69 98 1018.7
20160829005242 70 33 1.0 6.0 0.24 0.69 0.69 99 1018.7
20160829005042 70 58 3.0 5.0 0.33 0.69 0.69 98 1018.8
20160829004843 70 87 3.0 3.0 0.45 0.69 0.69 98 1018.7
20160829004743 70 90 1.0 3.0 0.58 0.69 0.69 98 1018.6
20160829004542 70 90 1.0 3.0 0.63 0.69 0.69 99 1018.5
20160829004243 70 90 1.0 5.0 0.67 0.69 0.69 99 1018.2
20160829004143 69 87 0.0 5.0 0.69 0.69 0.69 99 1018.1
20160829003842 70 86 1.0 5.0 0.69 0.69 0.69 98 1018.3
20160829003743 70 90 1.0 5.0 0.69 0.69 0.69 98 1018.2
20160829003442 70 92 2.0 5.0 0.69 0.69 0.69 98 1017.9
20160829003343 70 93 2.0 5.0 0.69 0.69 0.69 98 1018.0
20160829002942 70 108 2.0 4.0 0.67 0.67 0.67 98 1017.8
20160829002842 70 100 1.0 4.0 0.67 0.67 0.67 99 1017.9
20160829002643 70 90 0.0 4.0 0.67 0.67 0.67 98 1017.8
20160829002442 70 90 0.0 4.0 0.67 0.67 0.67 98 1017.6
20160829002243 70 90 1.0 5.0 0.67 0.67 0.67 98 1017.8
20160829001943 70 97 1.0 8.0 0.66 0.66 0.66 98 1017.8
20160829001642 70 119 3.0 11.0 0.66 0.66 0.66 98 1017.8
20160829001443 70 134 3.0 11.0 0.66 0.66 0.66 99 1017.7
20160829001343 70 143 3.0 11.0 0.66 0.66 0.66 99 1017.6
20160829001142 70 159 3.0 11.0 0.66 0.66 0.66 99 1017.3
20160829001043 69 171 5.0 11.0 0.66 0.66 0.66 99 1017.3
20160829000943 69 186 4.0 11.0 0.66 0.66 0.66 99 1017.2
20160829000643 69 214 3.0 5.0 0.65 0.65 0.65 99 1017.2
20160829000543 70 223 4.0 5.0 0.64 0.64 0.64 99 1017.3
20160829000443 70 233 3.0 5.0 0.64 0.64 0.64 99 1017.4
20160829000343 70 239 3.0 5.0 0.61 0.61 0.61 98 1017.6
20160829000242 70 243 2.0 5.0 0.61 0.61 0.61 98 1017.7
20160829000142 70 247 1.0 5.0 0.60 0.60 0.60 98 1017.7
20160828235943 70 255 0.0 5.0 0.58 0.58 0.58 98 1018.3
20160828235843 70 258 1.0 5.0 0.56 0.56 0.56 98 1018.1
20160828235542 71 274 2.0 7.0 0.50 0.50 0.50 96 1018.6
20160828235443 71 285 2.0 7.0 0.48 0.48 0.48 96 1018.6
20160828235243 71 304 1.0 7.0 0.45 0.45 0.45 95 1018.7
20160828234942 72 328 1.0 7.0 0.30 0.30 0.30 92 1018.7
20160828234743 73 351 1.0 7.0 0.11 0.11 0.11 88 1018.6
20160828234643 74 9 3.0 7.0 0.08 0.08 0.08 87 1018.2
20160828234442 75 44 3.0 5.0 0.04 0.04 0.04 84 1018.4
20160828234343 76 46 2.0 5.0 0.01 0.01 0.01 78 1018.0
20160828234243 77 50 3.0 5.0 0.00 0.00 0.00 78 1017.8
20160828234143 77 47 1.0 6.0 0.00 0.00 0.00 76 1017.7
20160828234042 77 35 1.0 10.0 0.00 0.00 0.00 78 1017.4
20160828233942 77 38 3.0 11.0 0.00 0.00 0.00 77 1017.3
20160828233843 77 48 2.0 11.0 0.00 0.00 0.00 77 1017.2
20160828233442 76 12 1.0 14.0 0.00 0.00 0.00 81 1016.7
20160828233243 77 8 4.0 14.0 0.00 0.00 0.00 81 1016.6
20160828232942 77 359 7.0 14.0 0.00 0.00 0.00 80 1016.6
20160828232842 77 353 4.0 14.0 0.00 0.00 0.00 80 1016.8
20160828232743 78 351 3.0 14.0 0.00 0.00 0.00 79 1016.8
20160828232643 78 347 9.0 14.0 0.00 0.00 0.00 80 1016.8
20160828232243 79 344 2.0 12.0 0.00 0.00 0.00 81 1016.3
20160828232143 79 347 1.0 12.0 0.00 0.00 0.00 81 1016.2
20160828232043 79 352 3.0 12.0 0.00 0.00 0.00 81 1016.2
20160828231742 79 13 5.0 12.0 0.00 0.00 0.00 79 1015.8
20160828231643 78 28 6.0 12.0 0.00 0.00 0.00 78 1016.0
20160828231543 78 43 3.0 12.0 0.00 0.00 0.00 75 1016.1
20160828231443 78 60 5.0 12.0 0.00 0.00 0.00 74 1015.9
20160828231342 78 82 7.0 12.0 0.00 0.00 0.00 73 1015.9
20160828231042 78 90 1.0 4.0 0.00 0.00 0.00 70 1015.6
20160828230943 78 90 2.0 6.0 0.00 0.00 0.00 70 1015.4
20160828230843 78 90 2.0 6.0 0.00 0.00 0.00 70 1015.5
20160828230543 79 90 1.0 6.0 0.00 0.00 0.00 69 1015.3
20160828230343 79 90 2.0 6.0 0.00 0.00 0.00 69 1015.6
20160828230242 79 90 2.0 6.0 0.00 0.00 0.00 69 1015.3
20160828230142 79 90 3.0 6.0 0.00 0.00 0.00 70 1015.3
20160828230042 79 90 2.0 6.0 0.00 0.00 0.00 69 1015.2
20160828225943 79 90 1.0 4.0 0.00 0.00 0.00 73 1015.2
20160828225743 79 90 1.0 4.0 0.00 0.00 0.00 72 1015.3
20160828225542 79 90 2.0 5.0 0.00 0.00 0.00 70 1015.1
20160828225243 79 102 2.0 5.0 0.00 0.00 0.00 70 1015.2
20160828225143 80 107 2.0 5.0 0.00 0.00 0.00 69 1015.1
20160828225042 80 107 3.0 8.0 0.00 0.00 0.00 70 1015.0
20160828224942 80 111 2.0 8.0 0.00 0.00 0.00 70 1015.0
20160828224743 80 116 3.0 8.0 0.00 0.00 0.00 73 1015.0
20160828224542 79 122 3.0 10.0 0.00 0.00 0.00 74 1015.1
20160828224442 80 122 3.0 11.0 0.00 0.00 0.00 74 1015.1
20160828224342 80 117 2.0 11.0 0.00 0.00 0.00 74 1015.0
20160828224243 80 113 2.0 11.0 0.00 0.00 0.00 73 1014.9
20160828224143 80 110 4.0 11.0 0.00 0.00 0.00 73 1015.1
20160828224042 80 109 7.0 11.0 0.00 0.00 0.00 73 1015.0
20160828223642 80 104 3.0 11.0 0.00 0.00 0.00 74 1014.9
20160828223343 80 105 5.0 7.0 0.00 0.00 0.00 76 1015.0
20160828222943 80 121 4.0 9.0 0.00 0.00 0.00 79 1015.1
20160828222742 80 125 4.0 9.0 0.00 0.00 0.00 79 1015.0
20160828222542 80 123 4.0 12.0 0.00 0.00 0.00 80 1015.2
20160828222443 80 120 4.0 12.0 0.00 0.00 0.00 80 1014.9
20160828222343 80 120 4.0 12.0 0.00 0.00 0.00 80 1015.1
20160828222142 80 111 6.0 12.0 0.00 0.00 0.00 79 1015.3
20160828222042 80 105 6.0 15.0 0.00 0.00 0.00 79 1015.2
20160828221943 81 106 5.0 15.0 0.00 0.00 0.00 77 1015.2
20160828221843 81 104 4.0 15.0 0.00 0.00 0.00 76 1015.3
20160828221642 81 96 6.0 15.0 0.00 0.00 0.00 75 1015.3
20160828221343 82 87 7.0 15.0 0.00 0.00 0.00 73 1015.2
20160828221242 82 89 6.0 15.0 0.00 0.00 0.00 73 1015.2
20160828220843 83 66 7.0 13.0 0.00 0.00 0.00 71 1015.4
20160828220642 87 28 9.0 13.0 0.00 0.00 0.00 65 1015.2
20160828220542 87 1 4.0 6.0 0.00 0.00 0.00 64 1015.2
20160828220242 90 0 0.0 0.0 0.00 0.00 0.00 60 1015.0
20160828215943 91 1 0.0 1.0 0.00 0.00 0.00 60 1015.1
20160828215743 91 1 0.0 2.0 0.00 0.00 0.00 60 1015.1
20160828215642 91 1 0.0 3.0 0.00 0.00 0.00 61 1015.0
20160828215343 92 1 0.0 3.0 0.00 0.00 0.00 56 1015.1
20160828215042 92 1 0.0 3.0 0.00 0.00 0.00 56 1015.1
20160828214942 91 355 0.0 3.0 0.00 0.00 0.00 56 1015.1
20160828214843 92 356 0.0 3.0 0.00 0.00 0.00 56 1015.1
20160828214542 94 356 1.0 3.0 0.00 0.00 0.00 55 1015.2
20160828214442 94 356 0.0 3.0 0.00 0.00 0.00 56 1015.2
20160828214343 92 357 1.0 5.0 0.00 0.00 0.00 56 1015.2
20160828214143 92 357 1.0 5.0 0.00 0.00 0.00 58 1015.2
20160828214044 91 357 2.0 5.0 0.00 0.00 0.00 58 1015.1
20160828213942 92 359 2.0 5.0 0.00 0.00 0.00 59 1015.3
20160828213743 92 353 1.0 5.0 0.00 0.00 0.00 60 1015.1
20160828213442 91 351 2.0 5.0 0.00 0.00 0.00 55 1015.1
20160828213342 92 350 3.0 5.0 0.00 0.00 0.00 55 1015.0
20160828213243 94 349 3.0 3.0 0.00 0.00 0.00 53 1015.1
20160828213143 93 349 1.0 3.0 0.00 0.00 0.00 52 1015.2
20160828213042 93 347 1.0 3.0 0.00 0.00 0.00 54 1015.3
20160828212942 92 342 0.0 3.0 0.00 0.00 0.00 55 1015.3
20160828212543 92 347 0.0 3.0 0.00 0.00 0.00 53 1015.3
20160828212443 91 347 0.0 3.0 0.00 0.00 0.00 53 1015.3
20160828212242 91 341 2.0 3.0 0.00 0.00 0.00 53 1015.2
20160828212142 92 338 1.0 3.0 0.00 0.00 0.00 55 1015.4
20160828211843 92 342 1.0 3.0 0.00 0.00 0.00 51 1015.2
20160828211743 93 340 3.0 3.0 0.00 0.00 0.00 52 1015.3
20160828211642 92 341 1.0 3.0 0.00 0.00 0.00 51 1015.3
20160828211542 94 336 1.0 3.0 0.00 0.00 0.00 50 1015.4
20160828211343 95 330 1.0 3.0 0.00 0.00 0.00 50 1015.5
20160828211042 92 320 1.0 2.0 0.00 0.00 0.00 52 1015.2
20160828210843 94 319 0.0 2.0 0.00 0.00 0.00 53 1015.5
20160828210542 93 339 0.0 3.0 0.00 0.00 0.00 50 1015.4
20160828210343 94 350 1.0 3.0 0.00 0.00 0.00 51 1015.4
20160828210242 96 356 1.0 3.0 0.00 0.00 0.00 52 1015.3
20160828205842 93 1 1.0 3.0 0.00 0.00 0.00 58 1015.5
20160828205743 92 1 0.0 3.0 0.00 0.00 0.00 56 1015.5
20160828205643 92 1 1.0 3.0 0.00 0.00 0.00 54 1015.4
20160828205542 93 1 2.0 3.0 0.00 0.00 0.00 52 1015.5
20160828205442 94 1 1.0 3.0 0.00 0.00 0.00 51 1015.5
20160828205143 95 1 0.0 2.0 0.00 0.00 0.00 50 1015.3
20160828204942 94 1 0.0 2.0 0.00 0.00 0.00 55 1015.5
20160828204842 94 1 0.0 2.0 0.00 0.00 0.00 54 1015.6
20160828204643 92 1 0.0 2.0 0.00 0.00 0.00 54 1015.3
20160828204342 94 1 1.0 3.0 0.00 0.00 0.00 48 1015.5
20160828204242 94 1 1.0 3.0 0.00 0.00 0.00 52 1015.6
20160828203742 95 355 1.0 4.0 0.00 0.00 0.00 52 1015.5
20160828203642 95 350 1.0 4.0 0.00 0.00 0.00 51 1015.4
20160828203542 94 351 1.0 4.0 0.00 0.00 0.00 55 1015.3
20160828202943 92 334 3.0 4.0 0.00 0.00 0.00 51 1015.4
20160828202843 94 331 2.0 3.0 0.00 0.00 0.00 52 1015.2
20160828202743 94 335 2.0 3.0 0.00 0.00 0.00 50 1015.2
20160828202642 94 339 1.0 3.0 0.00 0.00 0.00 51 1015.3
20160828202442 95 341 1.0 3.0 0.00 0.00 0.00 52 1015.2
20160828202143 94 358 0.0 3.0 0.00 0.00 0.00 54 1015.3
20160828202042 93 1 0.0 3.0 0.00 0.00 0.00 54 1015.2
20160828201942 91 1 1.0 3.0 0.00 0.00 0.00 55 1015.2
20160828201743 92 1 1.0 3.0 0.00 0.00 0.00 54 1015.2
20160828201242 95 1 0.0 3.0 0.00 0.00 0.00 55 1015.4
20160828201143 94 1 0.0 3.0 0.00 0.00 0.00 51 1015.3
20160828200942 94 1 1.0 3.0 0.00 0.07 0.00 50 1015.3
20160828200842 94 1 1.0 3.0 0.00 0.08 0.00 54 1015.2
20160828200742 93 1 1.0 3.0 0.00 0.12 0.00 52 1015.3
20160828200543 93 1 1.0 3.0 0.00 0.12 0.00 52 1015.4
20160828200342 93 1 1.0 3.0 0.00 0.12 0.00 52 1015.2
20160828200043 93 359 1.0 3.0 0.00 0.12 0.00 52 1015.4
20160828195543 93 337 2.0 3.0 0.00 0.12 0.00 50 1015.1
20160828195443 95 330 2.0 3.0 0.00 0.12 0.00 53 1015.4
20160828195342 95 322 1.0 3.0 0.00 0.12 0.00 50 1015.4
20160828195142 94 325 0.0 3.0 0.00 0.12 0.00 52 1015.5
20160828194742 93 338 1.0 5.0 0.00 0.12 0.00 59 1015.5
20160828194642 93 339 1.0 5.0 0.00 0.12 0.00 58 1015.5
20160828194542 92 341 0.0 5.0 0.00 0.12 0.00 59 1015.7
20160828194443 92 342 1.0 5.0 0.00 0.12 0.00 56 1015.6
20160828194343 92 346 2.0 5.0 0.00 0.12 0.00 56 1015.4
20160828194142 92 349 1.0 5.0 0.00 0.12 0.00 54 1015.5
20160828193943 91 348 1.0 5.0 0.00 0.12 0.00 53 1015.5
20160828193742 92 352 3.0 5.0 0.00 0.12 0.00 54 1015.4
20160828193642 93 353 3.0 5.0 0.00 0.12 0.00 51 1015.5
20160828193542 93 355 0.0 3.0 0.00 0.12 0.00 51 1015.5
20160828193443 92 355 0.0 3.0 0.00 0.12 0.00 52 1015.7
20160828193343 92 356 1.0 5.0 0.00 0.12 0.00 52 1015.4
20160828193042 94 356 1.0 5.0 0.00 0.12 0.00 56 1015.4
20160828192843 92 356 1.0 5.0 0.00 0.13 0.00 54 1015.5
20160828192442 90 1 0.0 5.0 0.00 0.13 0.00 54 1015.5
20160828192343 92 359 4.0 5.0 0.00 0.13 0.00 53 1015.5
20160828192243 92 356 1.0 3.0 0.00 0.13 0.00 54 1015.3
20160828192042 92 351 1.0 3.0 0.00 0.13 0.00 55 1015.6
20160828191942 91 349 2.0 3.0 0.00 0.13 0.00 55 1015.5
20160828191743 91 337 1.0 3.0 0.00 0.13 0.00 54 1015.5
20160828191642 92 336 2.0 3.0 0.00 0.13 0.00 54 1015.5
20160828191443 94 327 2.0 3.0 0.00 0.13 0.00 57 1015.5
20160828191342 93 323 0.0 5.0 0.00 0.13 0.00 57 1015.5
20160828191142 91 326 1.0 5.0 0.00 0.13 0.00 54 1015.8
20160828190943 91 328 2.0 5.0 0.00 0.13 0.00 53 1015.5
20160828190842 91 329 3.0 5.0 0.00 0.13 0.00 54 1015.8
20160828190642 91 330 2.0 5.0 0.00 0.13 0.00 57 1015.8
20160828190542 91 333 2.0 5.0 0.00 0.13 0.00 57 1016.1
20160828190243 91 335 1.0 6.0 0.00 0.13 0.00 57 1015.9
20160828185942 90 331 1.0 6.0 0.00 0.13 0.00 60 1016.1
20160828185642 90 334 4.0 6.0 0.00 0.13 0.00 55 1015.9
20160828185542 90 330 3.0 6.0 0.00 0.13 0.00 54 1016.0
20160828185442 91 327 3.0 6.0 0.00 0.13 0.00 53 1016.1
20160828185243 90 329 3.0 5.0 0.00 0.13 0.00 54 1016.1
20160828185143 92 335 1.0 4.0 0.00 0.13 0.00 50 1016.4
20160828185043 91 342 0.0 4.0 0.00 0.13 0.00 51 1016.3
20160828184942 91 345 1.0 5.0 0.00 0.13 0.00 51 1016.1
20160828184542 92 351 1.0 5.0 0.00 0.13 0.00 53 1016.6
20160828184442 92 353 0.0 5.0 0.00 0.13 0.00 52 1016.3
20160828184342 91 356 1.0 5.0 0.00 0.13 0.00 56 1016.5
20160828184242 92 1 1.0 5.0 0.00 0.13 0.00 53 1016.7
20160828184142 90 359 1.0 5.0 0.00 0.13 0.00 52 1016.5
20160828184043 91 354 3.0 5.0 0.00 0.13 0.00 52 1016.6
20160828183942 92 350 1.0 5.0 0.00 0.13 0.00 56 1016.8
20160828183842 92 351 1.0 5.0 0.00 0.13 0.00 57 1016.6
20160828183543 90 348 0.0 6.0 0.00 0.13 0.00 53 1016.7
20160828183443 90 349 2.0 6.0 0.00 0.13 0.00 56 1016.7
20160828183342 90 349 1.0 6.0 0.00 0.13 0.00 54 1016.5
20160828183242 90 348 3.0 6.0 0.00 0.13 0.00 55 1016.6
20160828182943 89 352 3.0 6.0 0.00 0.13 0.00 56 1016.8
20160828182742 90 356 2.0 5.0 0.00 0.13 0.00 55 1016.7
20160828182642 90 356 3.0 5.0 0.00 0.13 0.00 54 1017.0
20160828182542 91 356 4.0 5.0 0.00 0.13 0.00 57 1016.9
20160828182343 90 356 1.0 5.0 0.00 0.13 0.00 56 1016.9
20160828182242 91 356 2.0 5.0 0.00 0.13 0.00 59 1016.9
20160828182142 90 355 2.0 5.0 0.00 0.13 0.00 58 1016.9
20160828182042 90 357 3.0 5.0 0.00 0.13 0.00 58 1017.1
20160828181843 91 357 2.0 5.0 0.00 0.13 0.00 54 1017.2
20160828181743 90 357 1.0 5.0 0.00 0.13 0.00 53 1017.1
20160828181542 91 357 3.0 5.0 0.00 0.13 0.00 54 1017.0
20160828181442 91 357 2.0 5.0 0.00 0.13 0.00 54 1017.1
20160828181243 92 356 3.0 5.0 0.00 0.13 0.00 58 1017.2
20160828181142 89 1 2.0 3.0 0.00 0.13 0.00 55 1017.2
20160828181042 90 1 2.0 3.0 0.00 0.13 0.00 55 1017.3
20160828180943 89 1 1.0 3.0 0.00 0.13 0.00 54 1017.3
20160828180842 90 1 2.0 3.0 0.00 0.13 0.00 54 1017.1
20160828180442 90 348 1.0 4.0 0.00 0.13 0.00 56 1017.0
20160828180343 90 348 1.0 4.0 0.00 0.13 0.00 56 1017.2
20160828180142 90 341 1.0 4.0 0.00 0.13 0.00 56 1017.2
20160828180042 90 342 1.0 4.0 0.00 0.13 0.00 56 1017.1
20160828175942 90 342 1.0 4.0 0.00 0.13 0.00 56 1017.1
20160828175743 90 337 3.0 4.0 0.00 0.13 0.00 54 1017.3
20160828175442 90 341 1.0 5.0 0.00 0.13 0.00 55 1017.1
20160828175342 90 337 2.0 5.0 0.00 0.13 0.00 55 1017.3
20160828175242 90 339 1.0 5.0 0.00 0.13 0.00 56 1017.1
20160828175142 90 342 1.0 5.0 0.00 0.13 0.00 53 1017.2
20160828175043 90 341 1.0 5.0 0.00 0.13 0.00 54 1017.1
20160828174742 89 348 3.0 5.0 0.00 0.13 0.00 56 1017.5
20160828174642 89 353 2.0 5.0 0.00 0.13 0.00 55 1017.3
20160828174343 92 1 2.0 5.0 0.00 0.13 0.00 55 1017.1
20160828173843 90 1 1.0 7.0 0.00 0.13 0.00 56 1017.3
20160828173743 90 1 1.0 7.0 0.00 0.13 0.00 55 1017.2
20160828173642 90 1 2.0 7.0 0.00 0.13 0.00 56 1017.3
20160828173442 90 1 3.0 7.0 0.00 0.13 0.00 56 1017.2
20160828173343 89 1 3.0 7.0 0.00 0.13 0.00 55 1017.1
20160828172942 90 1 3.0 5.0 0.00 0.13 0.00 56 1017.2
20160828172842 90 1 3.0 5.0 0.00 0.13 0.00 57 1017.5
20160828172442 90 1 3.0 5.0 0.00 0.13 0.00 55 1017.3
20160828172342 90 1 2.0 5.0 0.00 0.13 0.00 58 1017.2
20160828172242 91 1 3.0 5.0 0.00 0.13 0.00 57 1017.2
20160828172043 91 1 1.0 5.0 0.00 0.13 0.00 56 1017.5
20160828171943 90 1 1.0 5.0 0.00 0.13 0.00 59 1017.4
20160828171842 90 1 1.0 5.0 0.00 0.13 0.00 58 1017.4
20160828171742 90 1 1.0 5.0 0.00 0.13 0.00 61 1017.2
20160828171642 90 1 1.0 5.0 0.00 0.13 0.00 60 1017.3
20160828171542 89 1 2.0 5.0 0.00 0.13 0.00 58 1017.3
20160828171442 90 1 3.0 5.0 0.00 0.13 0.00 61 1017.2
20160828171342 89 1 1.0 4.0 0.00 0.13 0.00 57 1017.4
20160828170843 89 1 2.0 5.0 0.00 0.13 0.00 60 1017.4
20160828170742 90 1 1.0 5.0 0.00 0.13 0.00 63 1017.3
20160828170243 89 1 1.0 5.0 0.00 0.13 0.00 62 1017.4
20160828165842 89 1 3.0 5.0 0.00 0.13 0.00 63 1017.6
20160828165542 88 1 1.0 3.0 0.00 0.13 0.00 63 1017.5
20160828165442 87 1 2.0 3.0 0.00 0.13 0.00 62 1017.3
20160828165242 87 1 1.0 3.0 0.00 0.13 0.00 63 1017.2
20160828165043 87 1 1.0 3.0 0.00 0.13 0.00 61 1017.6
20160828164842 87 1 3.0 3.0 0.00 0.13 0.00 60 1017.6
20160828164742 87 1 0.0 3.0 0.00 0.13 0.00 57 1017.6
20160828164642 87 1 2.0 3.0 0.00 0.13 0.00 57 1017.5
20160828164543 88 1 2.0 3.0 0.00 0.13 0.00 58 1017.7
20160828164242 87 1 1.0 3.0 0.00 0.13 0.00 59 1017.6
20160828164142 87 1 2.0 4.0 0.00 0.13 0.00 59 1017.8
20160828164042 87 1 2.0 6.0 0.00 0.13 0.00 59 1017.6
20160828163542 89 1 1.0 6.0 0.00 0.13 0.00 63 1017.5
20160828163343 88 1 0.0 6.0 0.00 0.13 0.00 58 1017.6
20160828163243 88 1 2.0 6.0 0.00 0.13 0.00 59 1017.6
20160828163042 89 1 2.0 4.0 0.00 0.13 0.00 57 1017.8
20160828162842 89 1 1.0 4.0 0.00 0.13 0.00 57 1017.7
20160828162442 87 1 1.0 4.0 0.00 0.13 0.00 57 1017.8
20160828162342 88 1 0.0 3.0 0.00 0.13 0.00 56 1017.8
20160828162242 88 1 2.0 3.0 0.00 0.13 0.00 57 1017.8
20160828161842 87 1 0.0 5.0 0.00 0.13 0.00 60 1017.7
20160828161543 86 1 2.0 5.0 0.00 0.13 0.00 59 1017.7
20160828161442 87 1 2.0 5.0 0.00 0.13 0.00 61 1017.8
20160828161342 87 1 1.0 5.0 0.00 0.13 0.00 60 1018.0
20160828161242 87 1 1.0 5.0 0.00 0.13 0.00 61 1017.8
20160828161142 86 1 1.0 5.0 0.00 0.13 0.00 62 1017.8
20160828160842 87 1 4.0 5.0 0.00 0.13 0.00 58 1018.0
20160828160742 87 1 0.0 3.0 0.00 0.13 0.00 58 1018.1
20160828160642 87 1 0.0 3.0 0.00 0.13 0.00 58 1017.8
20160828160442 87 1 0.0 4.0 0.00 0.13 0.00 58 1018.0
20160828160343 87 1 0.0 4.0 0.00 0.13 0.00 58 1017.9
20160828160142 87 1 0.0 4.0 0.00 0.13 0.00 58 1017.9
20160828160042 87 1 0.0 5.0 0.00 0.13 0.00 58 1017.8
20160828155743 88 1 1.0 5.0 0.00 0.13 0.00 59 1018.0
20160828155642 87 1 1.0 5.0 0.00 0.13 0.00 59 1017.9
20160828155442 88 1 1.0 5.0 0.00 0.13 0.00 61 1018.0
20160828155242 87 1 0.0 5.0 0.00 0.13 0.00 63 1018.1
20160828155143 86 1 3.0 5.0 0.00 0.13 0.00 60 1017.9
20160828155042 87 1 1.0 4.0 0.00 0.13 0.00 66 1017.9
20160828154842 86 1 0.0 5.0 0.00 0.13 0.00 62 1018.1
20160828154643 86 1 3.0 5.0 0.00 0.13 0.00 59 1017.8
20160828154542 87 1 3.0 5.0 0.00 0.13 0.00 63 1018.0
20160828154342 86 1 0.0 5.0 0.00 0.13 0.00 65 1018.0
20160828154242 86 1 1.0 5.0 0.00 0.13 0.00 63 1017.9
20160828154143 86 1 2.0 5.0 0.00 0.13 0.00 61 1017.9
20160828154043 86 1 2.0 5.0 0.00 0.13 0.00 59 1017.8
20160828153942 87 1 1.0 5.0 0.00 0.13 0.00 57 1018.1
20160828153842 86 1 1.0 5.0 0.00 0.13 0.00 58 1018.0
20160828153742 87 1 1.0 5.0 0.00 0.13 0.00 62 1018.0
20160828153442 87 1 1.0 4.0 0.00 0.13 0.00 63 1018.2
20160828153342 87 1 1.0 4.0 0.00 0.13 0.00 61 1017.9
20160828153242 87 1 1.0 4.0 0.00 0.13 0.00 62 1017.8
20160828153142 86 1 1.0 4.0 0.00 0.13 0.00 57 1018.0
20160828153042 86 1 1.0 4.0 0.00 0.13 0.00 57 1018.0
20160828152842 87 1 1.0 4.0 0.00 0.13 0.00 57 1018.1
20160828152742 88 1 3.0 4.0 0.00 0.13 0.00 55 1018.0
20160828152443 88 1 0.0 4.0 0.00 0.13 0.00 54 1018.0
20160828152342 88 1 1.0 4.0 0.00 0.13 0.00 59 1017.8
20160828152142 88 1 1.0 4.0 0.00 0.13 0.00 58 1018.0
20160828151942 88 1 0.0 4.0 0.00 0.13 0.00 60 1017.8
20160828151842 88 1 0.0 4.0 0.00 0.13 0.00 58 1018.3
20160828151742 88 1 0.0 4.0 0.00 0.13 0.00 61 1018.1
20160828151642 87 1 0.0 4.0 0.00 0.13 0.00 62 1018.0
20160828151242 88 1 0.0 3.0 0.00 0.13 0.00 60 1018.0
20160828150842 88 1 0.0 5.0 0.00 0.13 0.00 61 1017.8
20160828150642 87 1 0.0 5.0 0.00 0.13 0.00 64 1018.0
20160828150442 86 1 0.0 5.0 0.00 0.13 0.00 65 1017.8
20160828150243 85 1 0.0 5.0 0.00 0.13 0.00 67 1017.7
20160828150142 85 1 1.0 5.0 0.00 0.13 0.00 67 1017.8
20160828150042 84 1 1.0 5.0 0.00 0.13 0.00 65 1018.0
20160828145942 85 1 2.0 4.0 0.00 0.13 0.00 62 1017.9
20160828145742 85 1 2.0 4.0 0.00 0.13 0.00 63 1017.8
20160828145542 84 1 2.0 4.0 0.00 0.13 0.00 65 1017.8
20160828145243 83 1 2.0 4.0 0.00 0.13 0.00 64 1018.1
20160828145042 84 1 1.0 3.0 0.00 0.13 0.00 65 1018.0
20160828144842 84 1 1.0 3.0 0.00 0.13 0.00 66 1017.7
20160828144743 84 1 3.0 3.0 0.00 0.13 0.00 63 1018.1
20160828144442 85 1 1.0 3.0 0.00 0.13 0.00 62 1017.8
20160828144342 86 1 1.0 3.0 0.00 0.13 0.00 63 1018.0